Weather History for Beirut, Lebanon

Change the Weather History Date:

Monday, January 27, 2014

  Actual Average Record
Temperature  
Mean Temperature 64 °F -  
Max Temperature 68 °F 61 °F 73 °F (2002)
Min Temperature 59 °F 51 °F 41 °F (2000)
Degree Days  
Heating Degree Days 2    
Growing Degree Days 14 (Base 50)    
Moisture  
Dew Point 53 °F    
Average Humidity 68    
Maximum Humidity 82    
Minimum Humidity 53    
Precipitation  
Precipitation 0.00 in 0.18 in - ()
Sea Level Pressure  
Sea Level Pressure 29.75 in    
Wind  
Wind Speed 8 mph ()    
Max Wind Speed 17 mph    
Max Gust Speed -    
Visibility 4.5 miles    
Events Rain    
Averages and records for this station are not official NWS values.
T = Trace of Precipitation, MM = Missing Value Source: Averaged Metar Reports

Daily Weather History Graph

Daily Weather History Graph

Search for Another Location

Airport:

Trip Planner

Search our weather history database for the weather conditions in past years. The results will help you decide how hot, cold, wet, or windy it might be!

Date:

Astronomy

Jan. 27, 2014 Rise Set
Actual Time 6:38 AM EET 5:03 PM EET
Civil Twilight 6:11 AM EET 5:30 PM EET
Nautical Twilight 5:41 AM EET 6:00 PM EET
Astronomical Twilight 5:12 AM EET 6:29 PM EET
Moon 2:55 AM EET (1/27) 1:31 PM EET (1/27)
Length of Visible Light 11h 18m
Length of Day
10h 25m
Waning Crescent, 17% of the Moon is Illuminated
Jan 27
Waning Crescent
Jan 30
New
Feb 6
First Quarter
Feb 15
Full
Feb 22
Last Quarter

Hourly Weather History & Observations

Time (EET) Temp. Dew Point Humidity Pressure Visibility Wind Dir Wind Speed Gust Speed Precip Events Conditions
12:00 AM 66.2 °F 57.2 °F 73% 29.77 in 3.1 mi SSW 16.1 mph - N/A Rain Light Rain
1:00 AM 64.4 °F 55.4 °F 73% 29.77 in 3.1 mi SSW 12.7 mph - N/A   Mostly Cloudy
2:00 AM 63 °F 59 °F 81% 29.75 in 4 mi WSW 4.6 mph - -   Mostly Cloudy
2:00 AM 62.6 °F 57.2 °F 82% 29.77 in 3.1 mi WSW 8.1 mph - N/A Rain Rain
3:00 AM 62.6 °F 57.2 °F 82% 29.77 in 3.1 mi WSW 9.2 mph - N/A Rain Light Rain
4:00 AM 62.6 °F 53.6 °F 72% 29.77 in 4.3 mi SW 11.5 mph - N/A   Mostly Cloudy
5:00 AM 63 °F 56 °F 70% 29.75 in 4 mi SW 4.6 mph - - Rain Light Rain
5:00 AM 62.6 °F 55.4 °F 77% 29.77 in 3.7 mi SSW 10.4 mph - N/A   Scattered Clouds
6:00 AM 62.6 °F 55.4 °F 77% 29.77 in 3.1 mi South 4.6 mph - N/A Rain Rain
7:00 AM 60.8 °F 55.4 °F 82% 29.80 in 4.3 mi SSE 4.6 mph - N/A   Mostly Cloudy
8:00 AM 61 °F 57 °F 82% 29.77 in 4 mi South 3.5 mph - -   Partly Cloudy
8:00 AM 62.6 °F 55.4 °F 77% 29.80 in 4.3 mi SSE 5.8 mph - N/A   Mostly Cloudy
9:00 AM 62.6 °F 55.4 °F 77% 29.80 in 4.3 mi SSE 5.8 mph - N/A   Mostly Cloudy
10:00 AM 64.4 °F 51.8 °F 64% 29.80 in 4.3 mi SW 4.6 mph - N/A   Mostly Cloudy
11:00 AM 67 °F 55 °F 55% 29.73 in 5 mi SW 5.8 mph - -   Overcast
11:00 AM 64.4 °F 51.8 °F 64% 29.77 in 5.0 mi SW 8.1 mph - N/A   Overcast
12:00 PM 66.2 °F 53.6 °F 64% 29.74 in 4.3 mi SW 9.2 mph - N/A   Mostly Cloudy
1:00 PM 64.4 °F 53.6 °F 68% 29.74 in 4.3 mi SW 11.5 mph - N/A   Mostly Cloudy
2:00 PM 67 °F 56 °F 61% 29.69 in 4 mi SW 9.2 mph - -   Scattered Clouds
2:00 PM 66.2 °F 53.6 °F 64% 29.71 in 4.3 mi SW 13.8 mph - N/A   Mostly Cloudy
3:00 PM 64.4 °F 51.8 °F 64% 29.71 in 4.3 mi SW 17.3 mph - N/A   Scattered Clouds
4:00 PM 64.4 °F 50.0 °F 59% 29.71 in 5.0 mi SW 15.0 mph - N/A   Scattered Clouds
5:00 PM 62 °F 51 °F 59% 29.70 in 5 mi SW 6.9 mph - -   Scattered Clouds
5:00 PM 62.6 °F 50.0 °F 63% 29.71 in 3.1 mi SSW 13.8 mph - N/A   Mostly Cloudy
6:00 PM 60.8 °F 48.2 °F 63% 29.74 in 5.0 mi South 8.1 mph - N/A   Scattered Clouds
7:00 PM 60.8 °F 48.2 °F 63% 29.74 in 6.2 mi SSE 8.1 mph - N/A   Scattered Clouds
8:00 PM 61 °F 48 °F 53% 29.72 in 6 mi South 3.5 mph - -   Scattered Clouds
8:00 PM 60.8 °F 46.4 °F 59% 29.74 in 6.2 mi SSE 6.9 mph - N/A   Scattered Clouds
9:00 PM 60.8 °F 46.4 °F 59% 29.74 in 5.0 mi SSE 6.9 mph - N/A   Scattered Clouds
10:00 PM 60.8 °F 46.4 °F 59% 29.74 in 6.2 mi SSE 6.9 mph - N/A   Scattered Clouds
11:00 PM 59 °F 48 °F 58% 29.71 in 6 mi SSE 4.6 mph - -   Scattered Clouds
11:00 PM 60.8 °F 46.4 °F 59% 29.74 in 6.2 mi SSE 8.1 mph - N/A   Scattered Clouds